• In Hungary
  • List of Countries
  • For 7 days
  • Water Temperature
  • Satellite Maps
  • Weather Map
  • News
  • Weather Widgets
  • user-avatar
    Login

    Hourly Weather Sakkhar

    Today, 17 July, Tuesday

    Time Temperature Precipitation Wind Pressure Humidity
    00:00 +39°C° 0 mm 3 mps 741 mmHg 42%
    01:00 +39°C° 0 mm 3 mps 741 mmHg 42%
    02:00 +39°C° 0 mm 2 mps 741 mmHg 43%
    03:00 +38°C° 0 mm 2 mps 741 mmHg 43%
    04:00 +38°C° 0 mm 2 mps 741 mmHg 43%
    05:00 +36°C° 0 mm 1 mps 741 mmHg 47%
    06:00 +37°C° 0 mm 1 mps 741 mmHg 46%
    07:00 +37°C° 0 mm 1 mps 741 mmHg 44%
    08:00 +39°C° 0 mm 1 mps 742 mmHg 42%
    09:00 +40°C° 0 mm 1 mps 741 mmHg 39%
    10:00 +41°C° 0 mm 2 mps 741 mmHg 36%
    11:00 +42°C° 0 mm 2 mps 742 mmHg 33%
    12:00 +43°C° 0 mm 2 mps 741 mmHg 30%
    13:00 +45°C° 0 mm 3 mps 741 mmHg 28%
    14:00 +46°C° 0 mm 3 mps 740 mmHg 26%
    15:00 +47°C° 0 mm 3 mps 740 mmHg 26%
    16:00 +47°C° 0 mm 3 mps 739 mmHg 25%
    17:00 +47°C° 0 mm 3 mps 739 mmHg 24%
    18:00 +47°C° 0 mm 4 mps 739 mmHg 26%
    19:00 +47°C° 0 mm 4 mps 739 mmHg 27%
    20:00 +46°C° 0 mm 5 mps 739 mmHg 28%
    21:00 +46°C° 0 mm 5 mps 740 mmHg 30%
    22:00 +45°C° 0 mm 5 mps 740 mmHg 32%
    23:00 +43°C° 0 mm 5 mps 740 mmHg 34%

    Tomorrow, 18 July, Wednesday

    Time Temperature Precipitation Wind Pressure Humidity
    00:00 +43°C° 0 mm 5 mps 740 mmHg 37%
    01:00 +42°C° 0 mm 5 mps 740 mmHg 39%
    02:00 +41°C° 0 mm 5 mps 740 mmHg 42%
    03:00 +41°C° 0 mm 4 mps 740 mmHg 43%
    04:00 +41°C° 0 mm 4 mps 740 mmHg 44%
    05:00 +39°C° 0 mm 3 mps 740 mmHg 45%
    06:00 +41°C° 0 mm 4 mps 741 mmHg 44%
    07:00 +41°C° 0 mm 4 mps 741 mmHg 43%
    08:00 +41°C° 0 mm 4 mps 741 mmHg 42%
    09:00 +43°C° 0 mm 4 mps 741 mmHg 38%
    10:00 +44°C° 0 mm 4 mps 741 mmHg 34%
    11:00 +47°C° 0 mm 4 mps 741 mmHg 30%
    12:00 +47°C° 0 mm 4 mps 741 mmHg 28%
    13:00 +48°C° 0 mm 4 mps 740 mmHg 26%
    14:00 +49°C° 0 mm 4 mps 740 mmHg 24%
    15:00 +49°C° 0 mm 4 mps 739 mmHg 24%
    16:00 +49°C° 0 mm 4 mps 739 mmHg 24%
    17:00 +49°C° 0 mm 4 mps 739 mmHg 24%
    18:00 +48°C° 0.1 mm 5 mps 739 mmHg 26%
    19:00 +47°C° 0.1 mm 6 mps 739 mmHg 28%
    20:00 +46°C° 0.1 mm 7 mps 739 mmHg 29%
    21:00 +45°C° 0 mm 8 mps 739 mmHg 33%
    22:00 +43°C° 0 mm 8 mps 739 mmHg 37%
    23:00 +41°C° 0 mm 8 mps 740 mmHg 40%

    Day after tomorrow, 19 July, Thursday

    Time Temperature Precipitation Wind Pressure Humidity
    00:00 +40°C° 0.3 mm 8 mps 740 mmHg 42%
    01:00 +40°C° 0.3 mm 7 mps 740 mmHg 44%
    02:00 +39°C° 0.3 mm 7 mps 740 mmHg 45%
    03:00 +39°C° 0.3 mm 6 mps 740 mmHg 47%
    04:00 +38°C° 0.3 mm 6 mps 740 mmHg 48%
    05:00 +38°C° 0.3 mm 6 mps 740 mmHg 49%
    06:00 +38°C° 0.1 mm 6 mps 740 mmHg 49%
    07:00 +38°C° 0.1 mm 6 mps 740 mmHg 48%
    08:00 +38°C° 0.1 mm 6 mps 741 mmHg 48%
    09:00 +40°C° 0.1 mm 6 mps 741 mmHg 43%
    10:00 +42°C° 0.1 mm 6 mps 741 mmHg 38%
    11:00 +45°C° 0.1 mm 6 mps 741 mmHg 32%
    12:00 +46°C° 0 mm 6 mps 740 mmHg 30%
    13:00 +48°C° 0 mm 5 mps 740 mmHg 27%
    14:00 +49°C° 0 mm 5 mps 739 mmHg 25%
    15:00 +49°C° 0 mm 6 mps 739 mmHg 25%
    16:00 +49°C° 0 mm 6 mps 738 mmHg 25%
    17:00 +50°C° 0 mm 7 mps 738 mmHg 25%
    18:00 +47°C° 0 mm 7 mps 738 mmHg 29%
    19:00 +45°C° 0 mm 8 mps 738 mmHg 34%
    20:00 +44°C° 0 mm 9 mps 739 mmHg 38%
    21:00 +42°C° 0 mm 9 mps 739 mmHg 42%
    22:00 +40°C° 0 mm 9 mps 740 mmHg 46%
    23:00 +38°C° 0 mm 8 mps 740 mmHg 49%

    20 July, Friday

    Time Temperature Precipitation Wind Pressure Humidity
    00:00 +38°C° 0 mm 8 mps 740 mmHg 52%
    01:00 +36°C° 0 mm 7 mps 740 mmHg 55%
    02:00 +35°C° 0 mm 7 mps 739 mmHg 57%
    03:00 +35°C° 0 mm 7 mps 740 mmHg 59%
    04:00 +34°C° 0 mm 7 mps 740 mmHg 61%
    05:00 +34°C° 0 mm 7 mps 740 mmHg 62%
    06:00 +34°C° 0.1 mm 7 mps 740 mmHg 61%
    07:00 +35°C° 0.1 mm 6 mps 740 mmHg 59%
    08:00 +35°C° 0.1 mm 6 mps 741 mmHg 58%
    09:00 +38°C° 0 mm 6 mps 741 mmHg 52%
    10:00 +40°C° 0 mm 6 mps 741 mmHg 46%
    11:00 +42°C° 0 mm 5 mps 741 mmHg 40%
    12:00 +43°C° 0 mm 5 mps 740 mmHg 36%
    13:00 +46°C° 0 mm 5 mps 740 mmHg 32%
    14:00 +47°C° 0 mm 5 mps 739 mmHg 28%
    15:00 +47°C° 0 mm 6 mps 738 mmHg 28%
    16:00 +47°C° 0 mm 6 mps 738 mmHg 28%
    17:00 +47°C° 0 mm 6 mps 737 mmHg 28%
    18:00 +46°C° 0 mm 7 mps 738 mmHg 33%
    19:00 +44°C° 0 mm 8 mps 738 mmHg 37%
    20:00 +42°C° 0 mm 9 mps 738 mmHg 42%
    21:00 +40°C° 0 mm 9 mps 739 mmHg 46%
    22:00 +39°C° 0 mm 9 mps 739 mmHg 50%
    23:00 +37°C° 0 mm 9 mps 740 mmHg 54%

    21 July, Saturday

    Time Temperature Precipitation Wind Pressure Humidity
    00:00 +35°C° 0 mm 8 mps 739 mmHg 56%
    01:00 +35°C° 0 mm 8 mps 739 mmHg 58%
    02:00 +34°C° 0 mm 8 mps 739 mmHg 61%
    03:00 +34°C° 0 mm 7 mps 739 mmHg 62%
    04:00 +33°C° 0 mm 7 mps 739 mmHg 64%
    05:00 +33°C° 0 mm 7 mps 739 mmHg 65%
    06:00 +33°C° 0 mm 6 mps 740 mmHg 63%
    07:00 +34°C° 0 mm 6 mps 740 mmHg 61%
    08:00 +34°C° 0 mm 6 mps 740 mmHg 59%
    09:00 +36°C° 0 mm 5 mps 740 mmHg 53%
    10:00 +39°C° 0 mm 5 mps 740 mmHg 47%
    11:00 +41°C° 0 mm 4 mps 740 mmHg 42%
    12:00 +43°C° 0 mm 4 mps 740 mmHg 37%
    13:00 +44°C° 0 mm 4 mps 739 mmHg 33%
    14:00 +46°C° 0 mm 3 mps 738 mmHg 29%
    15:00 +46°C° 0 mm 3 mps 738 mmHg 28%
    16:00 +47°C° 0 mm 3 mps 737 mmHg 26%
    17:00 +49°C° 0 mm 4 mps 737 mmHg 25%
    18:00 +48°C° 0 mm 5 mps 737 mmHg 28%
    19:00 +46°C° 0 mm 6 mps 737 mmHg 31%
    20:00 +45°C° 0 mm 8 mps 737 mmHg 33%
    21:00 +43°C° 0 mm 9 mps 738 mmHg 39%
    22:00 +40°C° 0 mm 9 mps 738 mmHg 45%
    23:00 +38°C° 0 mm 10 mps 738 mmHg 51%

    22 July, Sunday

    Time Temperature Precipitation Wind Pressure Humidity
    00:00 +37°C° 0 mm 9 mps 738 mmHg 52%
    01:00 +37°C° 0 mm 8 mps 738 mmHg 53%
    02:00 +35°C° 0 mm 8 mps 738 mmHg 55%
    03:00 +35°C° 0 mm 7 mps 738 mmHg 56%
    04:00 +35°C° 0 mm 7 mps 738 mmHg 56%
    05:00 +35°C° 0 mm 6 mps 738 mmHg 57%
    06:00 +35°C° 0 mm 6 mps 738 mmHg 55%
    07:00 +36°C° 0 mm 6 mps 738 mmHg 54%
    08:00 +36°C° 0 mm 5 mps 739 mmHg 52%
    09:00 +39°C° 0 mm 5 mps 739 mmHg 46%
    10:00 +41°C° 0 mm 4 mps 738 mmHg 41%
    11:00 +43°C° 0 mm 3 mps 738 mmHg 35%
    12:00 +45°C° 0 mm 3 mps 738 mmHg 32%
    13:00 +46°C° 0 mm 3 mps 737 mmHg 28%
    14:00 +48°C° 0 mm 3 mps 736 mmHg 25%
    15:00 +50°C° 0 mm 3 mps 736 mmHg 24%
    16:00 +50°C° 0 mm 4 mps 735 mmHg 22%
    17:00 +51°C° 0 mm 4 mps 734 mmHg 21%
    18:00 +49°C° 0 mm 6 mps 735 mmHg 24%
    19:00 +48°C° 0 mm 8 mps 735 mmHg 28%
    20:00 +47°C° 0 mm 9 mps 735 mmHg 31%
    21:00 +44°C° 0 mm 9 mps 735 mmHg 37%
    22:00 +42°C° 0 mm 10 mps 736 mmHg 42%
    23:00 +39°C° 0 mm 10 mps 736 mmHg 48%
    Show more